Cody, WY

5:38 PM MDT on October 01, 2016 (GMT -0600)
Yellowstone Regional

Weather History for KCOD - January, 2014

Change the Weather History Date:

Friday, January 3, 2014

  Actual Average Record
Temperature  
Mean Temperature 34 °F -  
Max Temperature 48 °F 31 °F 55 °F (2003)
Min Temperature 21 °F 9 °F -26 °F (1959)
Degree Days  
Heating Degree Days 30    
Moisture  
Dew Point 22 °F    
Average Humidity 57    
Maximum Humidity 86    
Minimum Humidity 39    
Precipitation  
Precipitation 0.00 in - - ()
Sea Level Pressure  
Sea Level Pressure 29.69 in    
Wind  
Wind Speed 13 mph (West)    
Max Wind Speed 28 mph    
Max Gust Speed 44 mph    
Visibility 10 miles    
Events      
Averages and records for this station are not official NWS values.
T = Trace of Precipitation, MM = Missing Value Source: NWS Daily Summary

Daily Weather History Graph

Daily Weather History Graph

Search for Another Location

Airport or City:

Trip Planner

Search our weather history database for the weather conditions in past years. The results will help you decide how hot, cold, wet, or windy it might be!

Date:

Astronomy

Jan. 03, 2014 Rise Set
Actual Time 7:52 AM MST 4:48 PM MST
Civil Twilight 7:19 AM MST 5:22 PM MST
Nautical Twilight 6:42 AM MST 5:58 PM MST
Astronomical Twilight 6:07 AM MST 6:34 PM MST
Moon 9:13 AM MST (1/3) 8:10 PM MST (1/3)
Length of Visible Light 10h 02m
Length of Day
8h 56m
Waxing Crescent, 8% of the Moon is Illuminated
Jan 3
Waxing Crescent
Jan 7
First Quarter
Jan 15
Full
Jan 23
Last Quarter
Jan 30
New

Hourly Weather History & Observations

Time (MST) Temp. Windchill Dew Point Humidity Pressure Visibility Wind Dir Wind Speed Gust Speed Precip Events Conditions
12:15 AM 42.8 °F 33.8 °F 23.0 °F 46% 29.84 in 10.0 mi SW 21.9 mph 43.7 mph N/A   Clear
12:35 AM 44.6 °F - 23.0 °F 43% 29.84 in 10.0 mi Calm Calm - N/A   Clear
12:55 AM 42.8 °F 35.8 °F 21.2 °F 42% 29.82 in 10.0 mi WSW 13.8 mph 19.6 mph N/A   Clear
1:15 AM 44.6 °F 37.2 °F 24.8 °F 46% 29.80 in 10.0 mi WSW 17.3 mph 31.1 mph N/A   Clear
1:35 AM 44.6 °F 38.8 °F 23.0 °F 43% 29.80 in 10.0 mi WSW 11.5 mph 21.9 mph N/A   Clear
1:55 AM 44.6 °F 40.7 °F 23.0 °F 43% 29.79 in 10.0 mi SSW 6.9 mph - N/A   Partly Cloudy
2:15 AM 39.2 °F 34.2 °F 21.2 °F 49% 29.79 in 10.0 mi South 6.9 mph - N/A   Clear
2:35 AM 39.2 °F 32.5 °F 21.2 °F 49% 29.77 in 10.0 mi East 10.4 mph - N/A   Clear
2:55 AM 39.2 °F 35.9 °F 24.8 °F 56% 29.76 in 10.0 mi WNW 4.6 mph - N/A   Clear
3:15 AM 44.6 °F 38.4 °F 24.8 °F 46% 29.75 in 10.0 mi WSW 12.7 mph 18.4 mph N/A   Clear
3:35 AM 44.6 °F 39.2 °F 23.0 °F 43% 29.74 in 10.0 mi WSW 10.4 mph 20.7 mph N/A   Clear
3:55 AM 42.8 °F 35.4 °F 21.2 °F 42% 29.73 in 10.0 mi SSW 15.0 mph 21.9 mph N/A   Clear
4:15 AM 44.6 °F 37.2 °F 23.0 °F 43% 29.71 in 10.0 mi WSW 17.3 mph 27.6 mph N/A   Clear
4:35 AM 44.6 °F 38.1 °F 21.2 °F 39% 29.70 in 10.0 mi SSW 13.8 mph 27.6 mph N/A   Clear
4:55 AM 42.8 °F 33.3 °F 21.2 °F 42% 29.69 in 10.0 mi South 24.2 mph 29.9 mph N/A   Clear
5:15 AM 42.8 °F 34.8 °F 24.8 °F 49% 29.67 in 10.0 mi WSW 17.3 mph 33.4 mph N/A   Clear
5:35 AM 44.6 °F 38.8 °F 24.8 °F 46% 29.67 in 10.0 mi SW 11.5 mph 21.9 mph N/A   Mostly Cloudy
5:55 AM 44.6 °F 37.4 °F 23.0 °F 43% 29.67 in 10.0 mi SW 16.1 mph 21.9 mph N/A   Overcast
6:15 AM 44.6 °F 39.2 °F 23.0 °F 43% 29.66 in 10.0 mi WSW 10.4 mph 23.0 mph N/A   Overcast
6:35 AM 44.6 °F 36.4 °F 23.0 °F 43% 29.63 in 10.0 mi WSW 20.7 mph 28.8 mph N/A   Overcast
7:15 AM 44.6 °F 38.1 °F 24.8 °F 46% 29.59 in 10.0 mi West 13.8 mph 26.5 mph N/A   Clear
7:35 AM 44.6 °F 36.6 °F 24.8 °F 46% 29.57 in 10.0 mi WSW 19.6 mph 32.2 mph N/A   Clear
7:55 AM 44.6 °F 38.4 °F 24.8 °F 46% 29.55 in 10.0 mi WSW 12.7 mph 32.2 mph N/A   Clear
8:15 AM 44.6 °F 37.4 °F 24.8 °F 46% 29.53 in 10.0 mi WSW 16.1 mph 26.5 mph N/A   Clear
8:35 AM 44.6 °F 38.1 °F 24.8 °F 46% 29.54 in 10.0 mi SW 13.8 mph 27.6 mph N/A   Clear
8:55 AM 44.6 °F 37.8 °F 24.8 °F 46% 29.54 in 10.0 mi SW 15.0 mph 20.7 mph N/A   Clear
9:15 AM 46.4 °F 41.9 °F 26.6 °F 46% 29.54 in 10.0 mi SSW 9.2 mph - N/A   Clear
9:35 AM 44.6 °F 40.7 °F 26.6 °F 49% 29.54 in 10.0 mi SSW 6.9 mph - N/A   Clear
9:55 AM 46.4 °F 42.4 °F 28.4 °F 50% 29.55 in 10.0 mi SW 8.1 mph - N/A   Mostly Cloudy
10:15 AM 48.2 °F - 28.4 °F 46% 29.56 in 10.0 mi NNW 3.5 mph - N/A   Mostly Cloudy
10:35 AM 46.4 °F 39.2 °F 28.4 °F 50% 29.57 in 10.0 mi WSW 18.4 mph 24.2 mph N/A   Overcast
10:55 AM 44.6 °F 37.2 °F 30.2 °F 57% 29.57 in 10.0 mi West 17.3 mph 24.2 mph N/A   Overcast
11:15 AM 42.8 °F 36.6 °F 32.0 °F 66% 29.55 in 10.0 mi West 11.5 mph 19.6 mph N/A   Mostly Cloudy
11:35 AM 42.8 °F 35.4 °F 30.2 °F 61% 29.55 in 10.0 mi West 15.0 mph 20.7 mph N/A   Clear
11:55 AM 44.6 °F 38.1 °F 30.2 °F 57% 29.54 in 10.0 mi West 13.8 mph 19.6 mph N/A   Scattered Clouds
12:15 PM 44.6 °F 37.8 °F 28.4 °F 53% 29.53 in 10.0 mi West 15.0 mph 26.5 mph N/A   Scattered Clouds
12:35 PM 46.4 °F 40.7 °F 26.6 °F 46% 29.53 in 10.0 mi West 12.7 mph 31.1 mph N/A   Partly Cloudy
12:55 PM 46.4 °F 38.7 °F 23.0 °F 40% 29.53 in 10.0 mi West 20.7 mph 35.7 mph N/A   Mostly Cloudy
1:15 PM 44.6 °F 39.7 °F 23.0 °F 43% 29.53 in 10.0 mi West 9.2 mph 25.3 mph N/A   Overcast
1:35 PM 44.6 °F 39.2 °F 24.8 °F 46% 29.53 in 10.0 mi West 10.4 mph 19.6 mph N/A   Overcast
1:55 PM 44.6 °F 36.9 °F 24.8 °F 46% 29.54 in 10.0 mi WNW 18.4 mph 26.5 mph N/A   Overcast
2:15 PM 42.8 °F 34.3 °F 24.8 °F 49% 29.55 in 10.0 mi NNW 19.6 mph 34.5 mph N/A   Overcast
2:35 PM 39.2 °F 33.0 °F 28.4 °F 65% 29.58 in 10.0 mi NW 9.2 mph - N/A   Mostly Cloudy
2:55 PM 37.4 °F 27.8 °F 28.4 °F 70% 29.60 in 8.0 mi WNW 17.3 mph 24.2 mph N/A   Overcast
3:15 PM 33.8 °F 26.4 °F 28.4 °F 81% 29.61 in 3.0 mi West 9.2 mph 18.4 mph N/A   Overcast
3:35 PM 35.6 °F 28.0 °F 26.6 °F 70% 29.60 in 10.0 mi West 10.4 mph 17.3 mph N/A   Overcast
3:55 PM 35.6 °F 29.2 °F 24.8 °F 65% 29.62 in 10.0 mi NE 8.1 mph - N/A   Overcast
4:15 PM 33.8 °F 25.3 °F 23.0 °F 65% 29.64 in 10.0 mi East 11.5 mph - N/A   Overcast
4:35 PM 32.0 °F 25.6 °F 21.2 °F 64% 29.64 in 10.0 mi SE 6.9 mph - N/A   Mostly Cloudy
5:15 PM 32.0 °F 18.1 °F 19.4 °F 60% 29.68 in 10.0 mi NW 27.6 mph 41.4 mph N/A   Clear
5:35 PM 32.0 °F 20.8 °F 15.8 °F 51% 29.70 in 10.0 mi NW 17.3 mph 29.9 mph N/A   Clear
5:55 PM 33.8 °F 22.8 °F 15.8 °F 48% 29.71 in 10.0 mi WNW 18.4 mph 33.4 mph N/A   Mostly Cloudy
6:15 PM 33.8 °F 25.3 °F 17.6 °F 52% 29.73 in 10.0 mi NW 11.5 mph 19.6 mph N/A   Overcast
6:35 PM 32.0 °F 24.2 °F 15.8 °F 51% 29.73 in 10.0 mi NNW 9.2 mph - N/A   Overcast
6:55 PM 30.2 °F 20.2 °F 17.6 °F 60% 29.75 in 10.0 mi North 12.7 mph 31.1 mph N/A   Mostly Cloudy
7:15 PM 24.8 °F 9.6 °F 17.6 °F 74% 29.76 in 10.0 mi North 23.0 mph 36.8 mph N/A   Mostly Cloudy
7:35 PM 21.2 °F 3.9 °F 17.6 °F 86% 29.76 in 10.0 mi North 26.5 mph 34.5 mph N/A   Partly Cloudy
7:55 PM 21.2 °F 7.3 °F 17.6 °F 86% 29.79 in 10.0 mi NNW 16.1 mph 29.9 mph N/A   Clear
8:15 PM 23.0 °F - 15.8 °F 74% 29.83 in 10.0 mi Calm Calm - N/A   Mostly Cloudy
8:35 PM 23.0 °F 13.1 °F 15.8 °F 74% 29.84 in 10.0 mi SE 9.2 mph - N/A   Overcast
8:55 PM 23.0 °F 17.0 °F 15.8 °F 74% 29.85 in 10.0 mi NE 4.6 mph - N/A   Overcast
9:15 PM 23.0 °F 10.1 °F 15.8 °F 74% 29.85 in 10.0 mi NNW 15.0 mph 18.4 mph N/A   Overcast
9:35 PM 21.2 °F 8.9 °F 15.8 °F 80% 29.85 in 10.0 mi NNW 12.7 mph 23.0 mph N/A   Overcast
9:55 PM 21.2 °F 8.9 °F 15.8 °F 80% 29.85 in 10.0 mi NNW 12.7 mph 16.1 mph N/A   Overcast
10:15 PM 21.2 °F 8.9 °F 15.8 °F 80% 29.86 in 10.0 mi NNW 12.7 mph - N/A   Overcast
10:35 PM 21.2 °F 10.1 °F 15.8 °F 80% 29.86 in 10.0 mi NNW 10.4 mph - N/A   Overcast
10:55 PM 21.2 °F 9.5 °F 15.8 °F 80% 29.86 in 10.0 mi NNW 11.5 mph - N/A   Overcast
11:15 PM 21.2 °F 7.3 °F 15.8 °F 80% 29.86 in 10.0 mi NNW 16.1 mph 21.9 mph N/A   Overcast
11:35 PM 21.2 °F 8.3 °F 15.8 °F 80% 29.87 in 10.0 mi North 13.8 mph 25.3 mph N/A   Mostly Cloudy
11:55 PM 21.2 °F 8.9 °F 15.8 °F 80% 29.87 in 10.0 mi NNW 12.7 mph 19.6 mph N/A   Overcast